Visibility
12.7 15.0 15.0 15.0 15.0 15.0 15.0 15.0 15.0 5.9 3.9 7.3 10.9 9.5 14.9 15.0 11.2 13.8 11.3 6.3 0.1 0.7 15.0 15.0 15.0 15.0 15.0 15.0 15.0 15.0 15.0 15.0 8.7 0.1 0.1 11.5 9.6 15.0 15.0 15.0 15.0 15.0 10.1 10.6 2.7 6.5 9.2 15.0 15.0 15.0 15.0 15.0 15.0 15.0
15.0 15.0 15.0 15.0 15.0 15.0 15.0 12.5 7.9 7.1 14.1 13.2 15.0 15.0 15.0 15.0 11.9 15.0 5.4 8.4 13.0 0.1 0.8 15.0 15.0 15.0 15.0 15.0 15.0 15.0 15.0 15.0 14.4 1.5 0.0 0.1 1.5 0.6 15.0 15.0 15.0 15.0 14.2 15.0 14.9 15.0 15.0 15.0 15.0 15.0 15.0 15.0 15.0 15.0
15.0 15.0 15.0 6.8 9.0 12.3 14.8 15.0 13.7 15.0 15.0 15.0 15.0 15.0 15.0 15.0 15.0 15.0 15.0 11.4 11.9 0.2 6.0 9.7 10.6 15.0 15.0 15.0 15.0 15.0 15.0 15.0 15.0 15.0 4.5 0.3 0.2 15.0 4.2 15.0 15.0 15.0 15.0 15.0 15.0 15.0 15.0 15.0 15.0 15.0 15.0 15.0 15.0 15.0
15.0 15.0 15.0 15.0 15.0 15.0 15.0 15.0 15.0 15.0 15.0 15.0 15.0 15.0 15.0 15.0 15.0 15.0 7.7 15.0 0.9 0.2 0.0 4.5 7.5 15.0 10.3 15.0 15.0 15.0 15.0 11.9 15.0 15.0 0.1 0.1 8.0 15.0 15.0 15.0 15.0 15.0 15.0 15.0 15.0 15.0 15.0 15.0 15.0 15.0 15.0 15.0 15.0 15.0
15.0 15.0 15.0 15.0 15.0 15.0 15.0 15.0 15.0 15.0 15.0 15.0 15.0 15.0 15.0 15.0 15.0 12.2 6.9 13.7 2.8 0.1 0.1 4.1 15.0 15.0 15.0 6.4 15.0 15.0 11.7 2.9 15.0 15.0 0.0 0.0 15.0 15.0 15.0 15.0 15.0 15.0 15.0 15.0 15.0 15.0 15.0 15.0 15.0 15.0 15.0 15.0 15.0 15.0
15.0 15.0 15.0 15.0 15.0 15.0 15.0 15.0 15.0 15.0 15.0 15.0 15.0 15.0 15.0 14.3 13.8 2.9 2.2 8.1 8.2 9.1 0.1 0.0 8.2 9.2 15.0 14.8 5.7 15.0 15.0 2.8 9.9 3.1 5.8 15.0 15.0 15.0 0.6 15.0 15.0 15.0 15.0 15.0 15.0 15.0 15.0 15.0 15.0 15.0 15.0 15.0 15.0 15.0
15.0 15.0 15.0 15.0 15.0 15.0 15.0 15.0 15.0 15.0 15.0 15.0 15.0 15.0 13.6 15.0 13.0 7.5 3.4 0.9 5.7 14.2 0.1 0.0 0.1 15.0 14.6 13.3 8.0 7.8 8.7 13.5 8.4 15.0 3.6 15.0 15.0 13.1 2.0 3.4 15.0 15.0 15.0 15.0 15.0 15.0 15.0 15.0 15.0 15.0 15.0 15.0 15.0 15.0
15.0 15.0 15.0 15.0 15.0 15.0 15.0 15.0 15.0 15.0 15.0 15.0 15.0 14.1 15.0 5.6 1.3 15.0 14.9 12.5 7.7 4.0 1.5 0.0 0.0 0.1 15.0 15.0 0.1 15.0 12.6 9.9 14.0 5.5 5.8 7.1 7.7 0.1 7.9 15.0 15.0 15.0 15.0 15.0 15.0 15.0 15.0 15.0 15.0 15.0 15.0 15.0 15.0 15.0
15.0 15.0 15.0 15.0 15.0 15.0 15.0 15.0 15.0 9.9 5.2 7.3 15.0 4.4 0.2 0.3 0.1 2.1 1.7 15.0 15.0 11.9 0.0 0.0 0.0 0.1 15.0 11.6 0.6 15.0 11.2 0.0 0.4 0.0 6.3 13.3 11.3 15.0 15.0 15.0 15.0 15.0 15.0 15.0 15.0 15.0 15.0 15.0 15.0 15.0 15.0 15.0 15.0 15.0
15.0 15.0 7.0 6.3 7.0 6.9 9.4 12.6 12.0 5.6 5.4 4.7 4.3 0.1 0.1 0.1 2.6 0.4 9.3 15.0 14.6 0.0 0.8 0.0 0.2 0.1 0.9 0.1 0.0 0.0 0.0 0.0 0.0 0.3 15.0 0.1 0.6 15.0 15.0 15.0 15.0 15.0 15.0 15.0 15.0 15.0 15.0 15.0 15.0 15.0 15.0 15.0 15.0 15.0
0.8 0.5 0.4 0.5 2.1 12.7 13.3 12.8 8.7 5.3 3.7 3.8 0.3 0.1 0.1 0.6 11.2 0.6 0.0 0.0 0.1 0.0 0.4 12.6 7.7 0.2 4.7 0.0 0.0 0.0 0.0 0.0 0.0 15.0 11.2 1.6 0.1 15.0 15.0 13.8 15.0 15.0 15.0 15.0 15.0 15.0 15.0 15.0 15.0 15.0 15.0 15.0 15.0 15.0
5.9 4.5 1.9 0.9 1.6 15.0 15.0 15.0 15.0 10.0 2.6 2.4 8.5 14.7 15.0 5.6 0.1 0.1 0.1 0.1 6.6 2.9 6.4 0.0 6.4 15.0 0.2 11.7 0.0 0.0 0.0 0.0 0.4 13.4 0.4 0.3 2.1 15.0 13.8 15.0 15.0 15.0 15.0 15.0 15.0 15.0 15.0 15.0 15.0 15.0 15.0 15.0 15.0 15.0
5.9 3.9 6.7 6.7 4.0 4.0 6.5 5.3 4.0 11.2 15.0 15.0 1.8 0.0 0.1 0.0 0.0 0.1 0.1 1.1 6.8 0.0 0.0 0.0 0.0 0.1 0.5 5.4 0.0 0.0 0.1 0.1 15.0 0.1 7.0 10.2 14.8 15.0 15.0 15.0 15.0 15.0 15.0 15.0 15.0 15.0 15.0 15.0 15.0 15.0 15.0 15.0 15.0 15.0
5.1 5.8 6.5 4.7 6.2 5.5 4.3 4.2 5.7 14.6 15.0 0.0 0.0 0.1 0.0 0.1 0.0 0.0 0.0 0.0 0.0 0.0 0.1 0.1 0.0 0.0 0.0 0.1 0.0 1.3 0.1 14.4 2.8 1.3 5.3 2.2 15.0 15.0 15.0 15.0 15.0 15.0 15.0 15.0 15.0 15.0 15.0 15.0 15.0 15.0 15.0 15.0 15.0 15.0
9.1 4.1 4.7 6.9 7.8 12.9 15.0 15.0 15.0 15.0 0.3 0.0 0.1 0.0 0.0 0.0 0.0 0.0 0.0 0.0 0.0 0.1 0.4 0.0 0.0 0.1 0.0 0.0 0.1 0.1 0.0 7.4 15.0 8.3 0.1 15.0 15.0 15.0 15.0 15.0 15.0 15.0 15.0 15.0 15.0 15.0 15.0 15.0 15.0 15.0 15.0 15.0 15.0 15.0
15.0 13.8 3.9 4.2 4.8 15.0 15.0 15.0 15.0 15.0 0.1 0.1 0.0 0.0 0.0 0.0 0.0 0.0 0.0 0.0 0.1 0.0 0.0 0.2 0.6 9.9 0.0 0.1 0.8 15.0 15.0 5.6 0.1 0.0 4.8 15.0 15.0 15.0 15.0 15.0 15.0 15.0 15.0 15.0 15.0 15.0 15.0 15.0 15.0 15.0 15.0 15.0 15.0 15.0
15.0 15.0 15.0 15.0 15.0 15.0 15.0 10.9 15.0 0.1 0.0 0.0 0.1 0.1 0.0 0.0 0.0 0.0 0.0 0.0 0.2 0.0 0.0 0.1 15.0 1.3 13.3 15.0 3.2 0.1 0.0 0.0 0.0 0.1 15.0 15.0 15.0 15.0 15.0 15.0 15.0 15.0 15.0 15.0 15.0 15.0 15.0 15.0 15.0 15.0 15.0 15.0 15.0 15.0
15.0 15.0 15.0 15.0 15.0 15.0 15.0 13.7 0.2 0.2 0.1 0.0 0.0 0.0 0.1 0.0 0.0 0.0 0.0 0.1 0.1 0.1 2.4 14.2 15.0 0.8 0.2 1.7 0.2 0.0 0.0 0.0 0.0 0.1 13.4 15.0 15.0 15.0 15.0 15.0 15.0 15.0 15.0 15.0 15.0 15.0 15.0 15.0 15.0 15.0 15.0 15.0 15.0 15.0
15.0 15.0 15.0 15.0 15.0 15.0 0.2 0.2 12.6 0.1 0.0 0.0 0.0 0.0 0.0 0.0 0.0 0.0 0.1 3.0 15.0 15.0 8.5 3.4 0.1 0.1 0.0 0.0 0.0 0.0 0.0 0.0 0.0 0.0 0.0 5.9 8.4 0.2 0.4 15.0 15.0 15.0 15.0 15.0 15.0 15.0 15.0 15.0 15.0 15.0 15.0 15.0 15.0 15.0
15.0 15.0 15.0 15.0 15.0 15.0 9.3 0.3 15.0 10.8 0.0 0.0 0.0 0.0 0.0 0.0 0.0 0.0 0.0 0.0 0.1 0.3 0.2 0.1 0.1 0.1 0.1 0.0 0.0 0.0 0.0 0.0 0.1 0.0 0.0 0.0 0.0 0.1 0.1 0.2 3.0 15.0 15.0 15.0 15.0 15.0 15.0 15.0 15.0 15.0 15.0 15.0 14.2 12.1
15.0 15.0 15.0 15.0 15.0 15.0 1.4 0.4 0.0 0.0 0.0 0.0 0.0 0.0 0.0 0.0 0.0 0.1 0.3 13.3 7.6 0.1 0.1 0.1 0.1 0.1 0.0 0.0 0.0 0.0 0.0 0.0 0.0 13.0 0.1 0.0 0.1 0.3 0.1 0.1 0.2 0.4 11.0 2.2 15.0 11.7 15.0 15.0 15.0 15.0 4.6 4.1 15.0 11.7
15.0 15.0 4.0 6.7 7.6 4.4 11.6 7.0 6.6 0.2 0.0 0.0 0.0 0.0 0.1 0.1 0.1 0.1 7.6 9.1 0.1 0.1 0.1 0.1 0.1 0.1 0.1 0.0 0.0 0.0 7.8 15.0 15.0 0.1 0.2 0.6 0.2 0.3 0.3 1.3 4.8 0.4 1.2 1.4 8.7 15.0 15.0 15.0 15.0 15.0 5.7 15.0 15.0 15.0
15.0 15.0 15.0 15.0 15.0 15.0 15.0 15.0 15.0 7.9 0.3 0.1 0.2 0.2 0.1 0.1 0.1 0.4 0.4 0.2 0.1 0.1 0.1 0.1 0.1 0.2 0.1 0.2 2.2 0.2 0.1 9.3 1.1 0.9 3.2 1.5 1.6 2.3 4.0 0.7 8.1 8.1 6.5 14.0 15.0 15.0 15.0 15.0 15.0 15.0 7.0 15.0 15.0 4.9
15.0 15.0 3.3 3.2 15.0 12.3 0.2 15.0 15.0 15.0 15.0 15.0 12.7 0.7 0.4 0.2 7.3 15.0 0.5 0.2 0.1 1.8 0.3 0.1 0.2 10.5 0.9 1.6 0.2 0.1 0.1 1.1 0.4 0.2 4.1 15.0 4.2 0.3 0.2 0.3 0.9 5.8 15.0 15.0 15.0 15.0 15.0 14.6 15.0 15.0 14.7 15.0 15.0 9.9
15.0 12.2 15.0 15.0 15.0 15.0 15.0 14.6 15.0 15.0 1.3 2.2 14.4 1.9 1.7 15.0 2.9 1.1 0.3 0.2 0.3 0.2 0.2 0.1 0.9 0.9 0.4 0.1 0.2 0.1 0.1 0.3 0.2 0.2 0.1 0.7 4.5 0.7 0.5 14.2 14.2 14.5 15.0 15.0 15.0 15.0 15.0 15.0 14.5 15.0 15.0 15.0 10.8 11.8
6.2 1.1 7.3 4.8 6.9 4.6 1.9 2.0 4.1 9.4 15.0 11.7 0.9 13.6 1.2 15.0 12.7 0.2 0.3 0.1 0.3 0.2 0.2 0.1 0.1 1.0 0.7 0.4 0.5 1.1 0.1 0.2 0.9 0.5 0.2 0.4 0.3 0.2 0.1 0.3 0.5 1.4 15.0 15.0 11.7 4.4 11.2 15.0 15.0 13.9 7.8 15.0 11.2 0.5
0.6 0.4 4.8 14.2 5.6 8.7 15.0 13.1 15.0 13.0 0.5 0.7 4.3 0.2 0.3 4.3 0.4 0.1 0.3 0.9 0.5 0.2 0.3 0.3 1.2 1.9 0.8 0.5 0.4 0.2 0.3 0.9 0.6 0.3 1.3 10.7 12.7 11.7 9.3 15.0 15.0 15.0 15.0 15.0 15.0 15.0 7.2 10.8 5.7 7.7 9.8 5.5 1.0 3.0
0.3 0.5 0.1 3.2 15.0 15.0 1.6 15.0 5.1 0.4 1.3 0.8 0.4 2.5 1.1 0.4 0.2 0.1 0.1 0.2 5.7 8.5 4.7 3.1 3.9 3.3 0.9 0.4 0.3 0.4 0.3 0.2 2.6 15.0 15.0 11.7 15.0 15.0 15.0 11.1 15.0 14.6 1.4 6.1 15.0 4.1 12.3 1.1 11.3 11.1 2.8 3.5 7.7 15.0
0.2 0.3 15.0 3.4 15.0 15.0 0.3 0.4 0.3 0.5 0.7 0.7 4.2 0.5 0.4 0.2 0.1 0.1 0.1 2.5 4.7 8.9 0.3 0.2 0.4 13.1 15.0 15.0 15.0 15.0 15.0 15.0 15.0 15.0 2.9 0.5 0.5 3.2 7.5 8.1 10.7 15.0 15.0 13.9 10.5 15.0 9.2 3.2 0.9 3.5 11.2 2.1 0.5 2.2
0.8 1.1 14.4 15.0 6.8 0.3 0.1 3.8 0.1 0.3 10.1 15.0 4.9 0.7 2.6 0.3 0.1 4.6 1.1 0.5 7.6 0.4 0.3 0.7 3.4 4.9 0.4 1.2 2.1 3.6 10.8 12.5 15.0 4.9 3.2 2.0 0.4 2.1 0.4 0.3 4.6 1.9 2.0 15.0 11.4 12.6 12.8 12.7 14.6 4.3 9.0 15.0 13.4 3.5
11.4 15.0 15.0 15.0 0.3 0.2 0.6 14.2 15.0 15.0 15.0 15.0 15.0 15.0 4.9 0.4 0.3 1.2 0.3 0.6 0.6 0.3 15.0 15.0 11.2 6.4 4.0 6.0 3.7 3.4 0.9 0.5 9.4 15.0 13.7 6.3 11.3 2.9 3.5 3.0 6.4 7.8 2.9 0.4 0.2 1.2 14.1 4.8 3.2 4.3 2.5 2.0 3.2 0.6
8.9 4.1 0.3 0.8 0.2 0.1 0.6 0.1 0.3 1.0 0.6 2.6 0.7 2.2 0.4 2.5 0.6 0.9 1.1 7.4 15.0 2.4 1.3 2.3 3.2 3.6 9.1 3.7 1.4 15.0 3.7 0.3 13.3 14.1 1.1 6.5 5.4 15.0 14.4 15.0 2.3 3.5 12.9 14.7 14.7 1.4 0.9 3.2 2.4 0.8 0.4 0.5 8.3 14.5
15.0 15.0 15.0 0.5 0.1 1.1 15.0 1.5 12.3 3.3 4.0 3.5 0.8 11.9 6.9 11.6 0.6 0.3 0.7 12.1 3.5 1.8 0.5 0.6 1.8 1.8 5.9 15.0 15.0 3.1 4.9 15.0 15.0 2.5 1.5 3.5 3.8 2.4 7.5 15.0 15.0 7.5 4.5 8.9 9.6 8.7 6.7 0.8 0.7 0.7 0.5 0.5 0.8 1.2